Year,Month,Day,Hour,Minute,Value (Times are PST for temperature in C)
2013,04,23,00,00,6.10
2013,04,23,00,01,6.10
2013,04,23,00,02,6.10
2013,04,23,00,03,6.10
2013,04,23,00,04,6.00
2013,04,23,00,05,6.00
2013,04,23,00,06,6.00
2013,04,23,00,07,5.90
2013,04,23,00,08,5.90
2013,04,23,00,09,5.90
2013,04,23,00,10,5.90
2013,04,23,00,11,5.90
2013,04,23,00,12,5.90
2013,04,23,00,13,5.80
2013,04,23,00,14,5.80
2013,04,23,00,15,5.80
2013,04,23,00,16,5.80
2013,04,23,00,17,5.80
2013,04,23,00,18,5.80
2013,04,23,00,19,5.80
2013,04,23,00,20,5.80
2013,04,23,00,21,5.80
2013,04,23,00,22,5.80
2013,04,23,00,23,5.80
2013,04,23,00,24,5.80
2013,04,23,00,25,5.80
2013,04,23,00,26,5.80
2013,04,23,00,27,5.80
2013,04,23,00,28,5.80
2013,04,23,00,29,5.70
2013,04,23,00,30,5.70
2013,04,23,00,31,5.70
2013,04,23,00,32,5.60
2013,04,23,00,33,5.60
2013,04,23,00,34,5.60
2013,04,23,00,35,5.60
2013,04,23,00,36,5.50
2013,04,23,00,37,5.50
2013,04,23,00,38,5.40
2013,04,23,00,39,5.40
2013,04,23,00,40,5.40
2013,04,23,00,41,5.30
2013,04,23,00,42,5.30
2013,04,23,00,43,5.20
2013,04,23,00,44,5.20
2013,04,23,00,45,5.20
2013,04,23,00,46,5.20
2013,04,23,00,47,5.20
2013,04,23,00,48,5.20
2013,04,23,00,49,5.10
2013,04,23,00,50,5.10
2013,04,23,00,51,5.10
2013,04,23,00,52,5.10
2013,04,23,00,53,5.10
2013,04,23,00,54,5.10
2013,04,23,00,55,5.00
2013,04,23,00,56,5.00
2013,04,23,00,57,5.00
2013,04,23,00,58,4.90
2013,04,23,00,59,4.90
2013,04,23,01,00,4.80
2013,04,23,01,01,4.80
2013,04,23,01,02,4.80
2013,04,23,01,03,4.70
2013,04,23,01,04,4.70
2013,04,23,01,05,4.70
2013,04,23,01,06,4.70
2013,04,23,01,07,4.70
2013,04,23,01,08,4.70
2013,04,23,01,09,4.70
2013,04,23,01,10,4.70
2013,04,23,01,11,4.70
2013,04,23,01,12,4.70
2013,04,23,01,13,4.70
2013,04,23,01,14,4.70
2013,04,23,01,15,4.70
2013,04,23,01,16,4.70
2013,04,23,01,17,4.70
2013,04,23,01,18,4.70
2013,04,23,01,19,4.70
2013,04,23,01,20,4.70
2013,04,23,01,21,4.70
2013,04,23,01,22,4.70
2013,04,23,01,23,4.70
2013,04,23,01,24,4.70
2013,04,23,01,25,4.70
2013,04,23,01,26,4.70
2013,04,23,01,27,4.70
2013,04,23,01,28,4.60
2013,04,23,01,29,4.60
2013,04,23,01,30,4.60
2013,04,23,01,31,4.60
2013,04,23,01,32,4.60
2013,04,23,01,33,4.60
2013,04,23,01,34,4.60
2013,04,23,01,35,4.50
2013,04,23,01,36,4.50
2013,04,23,01,37,4.50
2013,04,23,01,38,4.50
2013,04,23,01,39,4.50
2013,04,23,01,40,4.50
2013,04,23,01,41,4.40
2013,04,23,01,42,4.40
2013,04,23,01,43,4.40
2013,04,23,01,44,4.40
2013,04,23,01,45,4.40
2013,04,23,01,46,4.40
2013,04,23,01,47,4.40
2013,04,23,01,48,4.40
2013,04,23,01,49,4.40
2013,04,23,01,50,4.40
2013,04,23,01,51,4.40
2013,04,23,01,52,4.40
2013,04,23,01,53,4.40
2013,04,23,01,54,4.30
2013,04,23,01,55,4.30
2013,04,23,01,56,4.30
2013,04,23,01,57,4.30
2013,04,23,01,58,4.30
2013,04,23,01,59,4.30
2013,04,23,02,00,4.30
2013,04,23,02,01,4.30
2013,04,23,02,02,4.30
2013,04,23,02,03,4.30
2013,04,23,02,04,4.20
2013,04,23,02,05,4.20
2013,04,23,02,06,4.10
2013,04,23,02,07,4.10
2013,04,23,02,08,4.10
2013,04,23,02,09,4.00
2013,04,23,02,10,4.00
2013,04,23,02,11,3.90
2013,04,23,02,12,3.90
2013,04,23,02,13,3.90
2013,04,23,02,14,3.90
2013,04,23,02,15,3.90
2013,04,23,02,16,3.90
2013,04,23,02,17,3.90
2013,04,23,02,18,3.90
2013,04,23,02,19,3.90
2013,04,23,02,20,3.90
2013,04,23,02,21,3.90
2013,04,23,02,22,3.80
2013,04,23,02,23,3.80
2013,04,23,02,24,3.80
2013,04,23,02,25,3.80
2013,04,23,02,26,3.80
2013,04,23,02,27,3.80
2013,04,23,02,28,3.90
2013,04,23,02,29,3.90
2013,04,23,02,30,3.80
2013,04,23,02,31,3.80
2013,04,23,02,32,3.80
2013,04,23,02,33,3.80
2013,04,23,02,34,3.80
2013,04,23,02,35,3.70
2013,04,23,02,36,3.70
2013,04,23,02,37,3.70
2013,04,23,02,38,3.70
2013,04,23,02,39,3.70
2013,04,23,02,40,3.70
2013,04,23,02,41,3.70
2013,04,23,02,42,3.60
2013,04,23,02,43,3.60
2013,04,23,02,44,3.60
2013,04,23,02,45,3.60
2013,04,23,02,46,3.60
2013,04,23,02,47,3.60
2013,04,23,02,48,3.60
2013,04,23,02,49,3.50
2013,04,23,02,50,3.50
2013,04,23,02,51,3.50
2013,04,23,02,52,3.50
2013,04,23,02,53,3.50
2013,04,23,02,54,3.50
2013,04,23,02,55,3.50
2013,04,23,02,56,3.50
2013,04,23,02,57,3.50
2013,04,23,02,58,3.60
2013,04,23,02,59,3.60
2013,04,23,03,00,3.60
2013,04,23,03,01,3.60
2013,04,23,03,02,3.60
2013,04,23,03,03,3.60
2013,04,23,03,04,3.60
2013,04,23,03,05,3.60
2013,04,23,03,06,3.60
2013,04,23,03,07,3.60
2013,04,23,03,08,3.60
2013,04,23,03,09,3.60
2013,04,23,03,10,3.50
2013,04,23,03,11,3.50
2013,04,23,03,12,3.50
2013,04,23,03,13,3.40
2013,04,23,03,14,3.40
2013,04,23,03,15,3.40
2013,04,23,03,16,3.40
2013,04,23,03,17,3.40
2013,04,23,03,18,3.40
2013,04,23,03,19,3.40
2013,04,23,03,20,3.30
2013,04,23,03,21,3.30
2013,04,23,03,22,3.30
2013,04,23,03,23,3.30
2013,04,23,03,24,3.30
2013,04,23,03,25,3.30
2013,04,23,03,26,3.30
2013,04,23,03,27,3.30
2013,04,23,03,28,3.30
2013,04,23,03,29,3.30
2013,04,23,03,30,3.30
2013,04,23,03,31,3.20
2013,04,23,03,32,3.20
2013,04,23,03,33,3.20
2013,04,23,03,34,3.20
2013,04,23,03,35,3.10
2013,04,23,03,36,3.10
2013,04,23,03,37,3.10
2013,04,23,03,38,3.00
2013,04,23,03,39,3.00
2013,04,23,03,40,2.90
2013,04,23,03,41,2.90
2013,04,23,03,42,2.90
2013,04,23,03,43,2.90
2013,04,23,03,44,2.90
2013,04,23,03,45,2.80
2013,04,23,03,46,2.80
2013,04,23,03,47,2.80
2013,04,23,03,48,2.80
2013,04,23,03,49,2.80
2013,04,23,03,50,2.80
2013,04,23,03,51,2.80
2013,04,23,03,52,2.90
2013,04,23,03,53,2.90
2013,04,23,03,54,3.00
2013,04,23,03,55,3.00
2013,04,23,03,56,3.00
2013,04,23,03,57,3.00
2013,04,23,03,58,3.00
2013,04,23,03,59,3.00
2013,04,23,04,00,3.00
2013,04,23,04,01,3.00
2013,04,23,04,02,2.90
2013,04,23,04,03,2.90
2013,04,23,04,04,2.90
2013,04,23,04,05,2.90
2013,04,23,04,06,2.90
2013,04,23,04,07,2.90
2013,04,23,04,08,2.90
2013,04,23,04,09,2.90
2013,04,23,04,10,2.80
2013,04,23,04,11,2.80
2013,04,23,04,12,2.80
2013,04,23,04,13,2.80
2013,04,23,04,14,2.80
2013,04,23,04,15,2.80
2013,04,23,04,16,2.70
2013,04,23,04,17,2.70
2013,04,23,04,18,2.70
2013,04,23,04,19,2.70
2013,04,23,04,20,2.70
2013,04,23,04,21,2.70
2013,04,23,04,22,2.70
2013,04,23,04,23,2.70
2013,04,23,04,24,2.60
2013,04,23,04,25,2.60
2013,04,23,04,26,2.60
2013,04,23,04,27,2.60
2013,04,23,04,28,2.60
2013,04,23,04,29,2.50
2013,04,23,04,30,2.50
2013,04,23,04,31,2.50
2013,04,23,04,32,2.50
2013,04,23,04,33,2.60
2013,04,23,04,34,2.60
2013,04,23,04,35,2.60
2013,04,23,04,36,2.60
2013,04,23,04,37,2.60
2013,04,23,04,38,2.60
2013,04,23,04,39,2.60
2013,04,23,04,40,2.50
2013,04,23,04,41,2.60
2013,04,23,04,42,2.50
2013,04,23,04,43,2.50
2013,04,23,04,44,2.50
2013,04,23,04,45,2.50
2013,04,23,04,46,2.50
2013,04,23,04,47,2.50
2013,04,23,04,48,2.50
2013,04,23,04,49,2.50
2013,04,23,04,50,2.50
2013,04,23,04,51,2.40
2013,04,23,04,52,2.40
2013,04,23,04,53,2.40
2013,04,23,04,54,2.40
2013,04,23,04,55,2.40
2013,04,23,04,56,2.40
2013,04,23,04,57,2.40
2013,04,23,04,58,2.40
2013,04,23,04,59,2.40
2013,04,23,05,00,2.40
2013,04,23,05,01,2.40
2013,04,23,05,02,2.40
2013,04,23,05,03,2.40
2013,04,23,05,04,2.40
2013,04,23,05,05,2.40
2013,04,23,05,06,2.40
2013,04,23,05,07,2.50
2013,04,23,05,08,2.50
2013,04,23,05,09,2.50
2013,04,23,05,10,2.40
2013,04,23,05,11,2.40
2013,04,23,05,12,2.40
2013,04,23,05,13,2.40
2013,04,23,05,14,2.30
2013,04,23,05,15,2.30
2013,04,23,05,16,2.30
2013,04,23,05,17,2.30
2013,04,23,05,18,2.20
2013,04,23,05,19,2.20
2013,04,23,05,20,2.20
2013,04,23,05,21,2.20
2013,04,23,05,22,2.20
2013,04,23,05,23,2.20
2013,04,23,05,24,2.20
2013,04,23,05,25,2.20
2013,04,23,05,26,2.30
2013,04,23,05,27,2.30
2013,04,23,05,28,2.30
2013,04,23,05,29,2.30
2013,04,23,05,30,2.30
2013,04,23,05,31,2.30
2013,04,23,05,32,2.40
2013,04,23,05,33,2.40
2013,04,23,05,34,2.40
2013,04,23,05,35,2.40
2013,04,23,05,36,2.50
2013,04,23,05,37,2.50
2013,04,23,05,38,2.50
2013,04,23,05,39,2.50
2013,04,23,05,40,2.50
2013,04,23,05,41,2.50
2013,04,23,05,42,2.50
2013,04,23,05,43,2.50
2013,04,23,05,44,2.50
2013,04,23,05,45,2.50
2013,04,23,05,46,2.50
2013,04,23,05,47,2.50
2013,04,23,05,48,2.50
2013,04,23,05,49,2.50
2013,04,23,05,50,2.50
2013,04,23,05,51,2.40
2013,04,23,05,52,2.40
2013,04,23,05,53,2.40
2013,04,23,05,54,2.40
2013,04,23,05,55,2.50
2013,04,23,05,56,2.40
2013,04,23,05,57,2.50
2013,04,23,05,58,2.50
2013,04,23,05,59,2.50
2013,04,23,06,00,2.50
2013,04,23,06,01,2.50
2013,04,23,06,02,2.50
2013,04,23,06,03,2.60
2013,04,23,06,04,2.60
2013,04,23,06,05,2.60
2013,04,23,06,06,2.60
2013,04,23,06,07,2.60
2013,04,23,06,08,2.60
2013,04,23,06,09,2.60
2013,04,23,06,10,2.60
2013,04,23,06,11,2.60
2013,04,23,06,12,2.70
2013,04,23,06,13,2.70
2013,04,23,06,14,2.70
2013,04,23,06,15,2.70
2013,04,23,06,16,2.70
2013,04,23,06,17,2.70
2013,04,23,06,18,2.70
2013,04,23,06,19,2.70
2013,04,23,06,20,2.70
2013,04,23,06,21,2.70
2013,04,23,06,22,2.80
2013,04,23,06,23,2.80
2013,04,23,06,24,2.80
2013,04,23,06,25,2.80
2013,04,23,06,26,2.80
2013,04,23,06,27,2.80
2013,04,23,06,28,2.90
2013,04,23,06,29,2.90
2013,04,23,06,30,2.90
2013,04,23,06,31,2.90
2013,04,23,06,32,2.90
2013,04,23,06,33,2.90
2013,04,23,06,34,2.90
2013,04,23,06,35,2.90
2013,04,23,06,36,2.90
2013,04,23,06,37,2.90
2013,04,23,06,38,3.00
2013,04,23,06,39,3.00
2013,04,23,06,40,3.00
2013,04,23,06,41,3.10
2013,04,23,06,42,3.10
2013,04,23,06,43,3.10
2013,04,23,06,44,3.10
2013,04,23,06,45,3.10
2013,04,23,06,46,3.10
2013,04,23,06,47,3.10
2013,04,23,06,48,3.20
2013,04,23,06,49,3.20
2013,04,23,06,50,3.20
2013,04,23,06,51,3.20
2013,04,23,06,52,3.20
2013,04,23,06,53,3.20
2013,04,23,06,54,3.20
2013,04,23,06,55,3.30
2013,04,23,06,56,3.30
2013,04,23,06,57,3.30
2013,04,23,06,58,3.30
2013,04,23,06,59,3.30
2013,04,23,07,00,3.30
2013,04,23,07,01,3.30
2013,04,23,07,02,3.30
2013,04,23,07,03,3.30
2013,04,23,07,04,3.40
2013,04,23,07,05,3.40
2013,04,23,07,06,3.40
2013,04,23,07,07,3.40
2013,04,23,07,08,3.50
2013,04,23,07,09,3.50
2013,04,23,07,10,3.50
2013,04,23,07,11,3.60
2013,04,23,07,12,3.60
2013,04,23,07,13,3.60
2013,04,23,07,14,3.60
2013,04,23,07,15,3.60
2013,04,23,07,16,3.60
2013,04,23,07,17,3.70
2013,04,23,07,18,3.70
2013,04,23,07,19,3.70
2013,04,23,07,20,3.70
2013,04,23,07,21,3.70
2013,04,23,07,22,3.70
2013,04,23,07,23,3.80
2013,04,23,07,24,3.80
2013,04,23,07,25,3.80
2013,04,23,07,26,3.80
2013,04,23,07,27,3.80
2013,04,23,07,28,3.80
2013,04,23,07,29,3.80
2013,04,23,07,30,3.90
2013,04,23,07,31,3.90
2013,04,23,07,32,3.90
2013,04,23,07,33,3.90
2013,04,23,07,34,3.90
2013,04,23,07,35,4.00
2013,04,23,07,36,4.00
2013,04,23,07,37,4.00
2013,04,23,07,38,4.00
2013,04,23,07,39,4.10
2013,04,23,07,40,4.10
2013,04,23,07,41,4.10
2013,04,23,07,42,4.10
2013,04,23,07,43,4.20
2013,04,23,07,44,4.20
2013,04,23,07,45,4.30
2013,04,23,07,46,4.30
2013,04,23,07,47,4.40
2013,04,23,07,48,4.40
2013,04,23,07,49,4.50
2013,04,23,07,50,4.50
2013,04,23,07,51,4.60
2013,04,23,07,52,4.70
2013,04,23,07,53,4.70
2013,04,23,07,54,4.80
2013,04,23,07,55,4.80
2013,04,23,07,56,4.90
2013,04,23,07,57,5.00
2013,04,23,07,58,5.10
2013,04,23,07,59,5.10
2013,04,23,08,00,5.20
2013,04,23,08,01,5.30
2013,04,23,08,02,5.30
2013,04,23,08,03,5.40
2013,04,23,08,04,5.50
2013,04,23,08,05,5.60
2013,04,23,08,06,5.60
2013,04,23,08,07,5.70
2013,04,23,08,08,5.80
2013,04,23,08,09,5.80
2013,04,23,08,10,5.90
2013,04,23,08,11,5.90
2013,04,23,08,12,6.00
2013,04,23,08,13,6.10
2013,04,23,08,14,6.20
2013,04,23,08,15,6.20
2013,04,23,08,16,6.30
2013,04,23,08,17,6.40
2013,04,23,08,18,6.50
2013,04,23,08,19,6.60
2013,04,23,08,20,6.70
2013,04,23,08,21,6.80
2013,04,23,08,22,6.90
2013,04,23,08,23,7.00
2013,04,23,08,24,7.10
2013,04,23,08,25,7.10
2013,04,23,08,26,7.20
2013,04,23,08,27,7.30
2013,04,23,08,28,7.30
2013,04,23,08,29,7.40
2013,04,23,08,30,7.50
2013,04,23,08,31,7.50
2013,04,23,08,32,7.60
2013,04,23,08,33,7.70
2013,04,23,08,34,7.70
2013,04,23,08,35,7.80
2013,04,23,08,36,7.80
2013,04,23,08,37,7.80
2013,04,23,08,38,7.80
2013,04,23,08,39,7.90
2013,04,23,08,40,7.90
2013,04,23,08,41,7.90
2013,04,23,08,42,7.90
2013,04,23,08,43,7.90
2013,04,23,08,44,7.90
2013,04,23,08,45,7.90
2013,04,23,08,46,7.90
2013,04,23,08,47,7.90
2013,04,23,08,48,7.90
2013,04,23,08,49,7.90
2013,04,23,08,50,7.90
2013,04,23,08,51,7.90
2013,04,23,08,52,8.00
2013,04,23,08,53,8.00
2013,04,23,08,54,7.90
2013,04,23,08,55,7.90
2013,04,23,08,56,7.90
2013,04,23,08,57,7.90
2013,04,23,08,58,7.90
2013,04,23,08,59,8.00
2013,04,23,09,00,8.00
2013,04,23,09,01,8.00
2013,04,23,09,02,8.00
2013,04,23,09,03,8.00
2013,04,23,09,04,8.10
2013,04,23,09,05,8.10
2013,04,23,09,06,8.10
2013,04,23,09,07,8.00
2013,04,23,09,08,8.10
2013,04,23,09,09,8.10
2013,04,23,09,10,8.10
2013,04,23,09,11,8.10
2013,04,23,09,12,8.10
2013,04,23,09,13,8.20
2013,04,23,09,14,8.20
2013,04,23,09,15,8.20
2013,04,23,09,16,8.30
2013,04,23,09,17,8.30
2013,04,23,09,18,8.30
2013,04,23,09,19,8.30
2013,04,23,09,20,8.30
2013,04,23,09,21,8.40
2013,04,23,09,22,8.40
2013,04,23,09,23,8.40
2013,04,23,09,24,8.50
2013,04,23,09,25,8.60
2013,04,23,09,26,8.60
2013,04,23,09,27,8.70
2013,04,23,09,28,8.70
2013,04,23,09,29,8.80
2013,04,23,09,30,8.80
2013,04,23,09,31,8.90
2013,04,23,09,32,8.90
2013,04,23,09,33,9.00
2013,04,23,09,34,9.10
2013,04,23,09,35,9.20
2013,04,23,09,36,9.20
2013,04,23,09,37,9.30
2013,04,23,09,38,9.30
2013,04,23,09,39,9.30
2013,04,23,09,40,9.30
2013,04,23,09,41,9.30
2013,04,23,09,42,9.40
2013,04,23,09,43,9.40
2013,04,23,09,44,9.40
2013,04,23,09,45,9.50
2013,04,23,09,46,9.60
2013,04,23,09,47,9.70
2013,04,23,09,48,9.80
2013,04,23,09,49,9.80
2013,04,23,09,50,9.90
2013,04,23,09,51,10.00
2013,04,23,09,52,10.00
2013,04,23,09,53,10.10
2013,04,23,09,54,10.20
2013,04,23,09,55,10.20
2013,04,23,09,56,10.30
2013,04,23,09,57,10.30
2013,04,23,09,58,10.30
2013,04,23,09,59,10.30
2013,04,23,10,00,10.30
2013,04,23,10,01,10.40
2013,04,23,10,02,10.40
2013,04,23,10,03,10.40
2013,04,23,10,04,10.40
2013,04,23,10,05,10.40
2013,04,23,10,06,10.40
2013,04,23,10,07,10.40
2013,04,23,10,08,10.40
2013,04,23,10,09,10.40
2013,04,23,10,10,10.40
2013,04,23,10,11,10.50
2013,04,23,10,12,10.50
2013,04,23,10,13,10.50
2013,04,23,10,14,10.60
2013,04,23,10,15,10.60
2013,04,23,10,16,10.70
2013,04,23,10,17,10.70
2013,04,23,10,18,10.80
2013,04,23,10,19,10.80
2013,04,23,10,20,10.80
2013,04,23,10,21,10.90
2013,04,23,10,22,10.90
2013,04,23,10,23,11.00
2013,04,23,10,24,11.00
2013,04,23,10,25,10.90
2013,04,23,10,26,10.90
2013,04,23,10,27,11.00
2013,04,23,10,28,11.00
2013,04,23,10,29,11.00
2013,04,23,10,30,11.00
2013,04,23,10,31,11.10
2013,04,23,10,32,11.10
2013,04,23,10,33,11.10
2013,04,23,10,34,11.10
2013,04,23,10,35,11.00
2013,04,23,10,36,11.00
2013,04,23,10,37,10.90
2013,04,23,10,38,10.90
2013,04,23,10,39,10.90
2013,04,23,10,40,10.90
2013,04,23,10,41,11.00
2013,04,23,10,42,11.00
2013,04,23,10,43,11.00
2013,04,23,10,44,11.00
2013,04,23,10,45,11.10
2013,04,23,10,46,11.10
2013,04,23,10,47,11.10
2013,04,23,10,48,11.10
2013,04,23,10,49,11.00
2013,04,23,10,50,11.00
2013,04,23,10,51,10.90
2013,04,23,10,52,10.90
2013,04,23,10,53,10.90
2013,04,23,10,54,10.90
2013,04,23,10,55,10.90
2013,04,23,10,56,10.90
2013,04,23,10,57,10.90
2013,04,23,10,58,10.90
2013,04,23,10,59,11.00
2013,04,23,11,00,10.90
2013,04,23,11,01,10.90
2013,04,23,11,02,10.80
2013,04,23,11,03,10.80
2013,04,23,11,04,10.80
2013,04,23,11,05,10.80
2013,04,23,11,06,10.80
2013,04,23,11,07,10.80
2013,04,23,11,08,10.80
2013,04,23,11,09,10.80
2013,04,23,11,10,10.80
2013,04,23,11,11,10.80
2013,04,23,11,12,10.80
2013,04,23,11,13,10.80
2013,04,23,11,14,10.90
2013,04,23,11,15,10.90
2013,04,23,11,16,10.90
2013,04,23,11,17,10.90
2013,04,23,11,18,11.00
2013,04,23,11,19,11.00
2013,04,23,11,20,11.00
2013,04,23,11,21,11.10
2013,04,23,11,22,11.10
2013,04,23,11,23,11.10
2013,04,23,11,24,11.10
2013,04,23,11,25,11.10
2013,04,23,11,26,11.10
2013,04,23,11,27,11.10
2013,04,23,11,28,11.10
2013,04,23,11,29,11.20
2013,04,23,11,30,11.20
2013,04,23,11,31,11.20
2013,04,23,11,32,11.20
2013,04,23,11,33,11.20
2013,04,23,11,34,11.20
2013,04,23,11,35,11.30
2013,04,23,11,36,11.40
2013,04,23,11,37,11.50
2013,04,23,11,38,11.60
2013,04,23,11,39,11.70
2013,04,23,11,40,11.60
2013,04,23,11,41,11.50
2013,04,23,11,42,11.50
2013,04,23,11,43,11.50
2013,04,23,11,44,11.50
2013,04,23,11,45,11.60
2013,04,23,11,46,11.70
2013,04,23,11,47,11.80
2013,04,23,11,48,11.90
2013,04,23,11,49,12.00
2013,04,23,11,50,12.10
2013,04,23,11,51,12.10
2013,04,23,11,52,12.20
2013,04,23,11,53,12.20
2013,04,23,11,54,12.30
2013,04,23,11,55,12.40
2013,04,23,11,56,12.40
2013,04,23,11,57,12.50
2013,04,23,11,58,12.50
2013,04,23,11,59,12.50
2013,04,23,12,00,12.50
2013,04,23,12,01,12.50
2013,04,23,12,02,12.50
2013,04,23,12,03,12.40
2013,04,23,12,04,12.40
2013,04,23,12,05,12.30
2013,04,23,12,06,12.20
2013,04,23,12,07,12.10
2013,04,23,12,08,12.00
2013,04,23,12,09,11.90
2013,04,23,12,10,11.80
2013,04,23,12,11,11.70
2013,04,23,12,12,11.70
2013,04,23,12,13,11.70
2013,04,23,12,14,11.70
2013,04,23,12,15,11.70
2013,04,23,12,16,11.70
2013,04,23,12,17,11.70
2013,04,23,12,18,11.70
2013,04,23,12,19,11.70
2013,04,23,12,20,11.70
2013,04,23,12,21,11.80
2013,04,23,12,22,11.80
2013,04,23,12,23,11.80
2013,04,23,12,24,11.80
2013,04,23,12,25,11.70
2013,04,23,12,26,11.70
2013,04,23,12,27,11.70
2013,04,23,12,28,11.70
2013,04,23,12,29,11.70
2013,04,23,12,30,11.80
2013,04,23,12,31,11.80
2013,04,23,12,32,11.80
2013,04,23,12,33,11.90
2013,04,23,12,34,12.00
2013,04,23,12,35,12.00
2013,04,23,12,36,11.90
2013,04,23,12,37,11.90
2013,04,23,12,38,11.90
2013,04,23,12,39,11.90
2013,04,23,12,40,12.00
2013,04,23,12,41,12.00
2013,04,23,12,42,12.00
2013,04,23,12,43,12.10
2013,04,23,12,44,12.20
2013,04,23,12,45,12.20
2013,04,23,12,46,12.20
2013,04,23,12,47,12.30
2013,04,23,12,48,12.20
2013,04,23,12,49,12.20
2013,04,23,12,50,12.30
2013,04,23,12,51,12.30
2013,04,23,12,52,12.40
2013,04,23,12,53,12.50
2013,04,23,12,54,12.50
2013,04,23,12,55,12.50
2013,04,23,12,56,12.50
2013,04,23,12,57,12.40
2013,04,23,12,58,12.40
2013,04,23,12,59,12.40
2013,04,23,13,00,12.50
2013,04,23,13,01,12.50
2013,04,23,13,02,12.60
2013,04,23,13,03,12.60
2013,04,23,13,04,12.60
2013,04,23,13,05,12.50
2013,04,23,13,06,12.50
2013,04,23,13,07,12.40
2013,04,23,13,08,12.50
2013,04,23,13,09,12.50
2013,04,23,13,10,12.60
2013,04,23,13,11,12.60
2013,04,23,13,12,12.60
2013,04,23,13,13,12.60
2013,04,23,13,14,12.60
2013,04,23,13,15,12.50
2013,04,23,13,16,12.40
2013,04,23,13,17,12.30
2013,04,23,13,18,12.20
2013,04,23,13,19,12.20
2013,04,23,13,20,12.10
2013,04,23,13,21,12.00
2013,04,23,13,22,11.90
2013,04,23,13,23,12.00
2013,04,23,13,24,12.00
2013,04,23,13,25,12.00
2013,04,23,13,26,12.00
2013,04,23,13,27,12.10
2013,04,23,13,28,12.10
2013,04,23,13,29,12.10
2013,04,23,13,30,12.10
2013,04,23,13,31,12.10
2013,04,23,13,32,12.10
2013,04,23,13,33,12.10
2013,04,23,13,34,12.20
2013,04,23,13,35,12.30
2013,04,23,13,36,12.40
2013,04,23,13,37,12.50
2013,04,23,13,38,12.60
2013,04,23,13,39,12.50
2013,04,23,13,40,12.50
2013,04,23,13,41,12.60
2013,04,23,13,42,12.60
2013,04,23,13,43,12.60
2013,04,23,13,44,12.60
2013,04,23,13,45,12.60
2013,04,23,13,46,12.70
2013,04,23,13,47,12.80
2013,04,23,13,48,12.80
2013,04,23,13,49,12.90
2013,04,23,13,50,13.10
2013,04,23,13,51,13.20
2013,04,23,13,52,13.30
2013,04,23,13,53,13.50
2013,04,23,13,54,13.60
2013,04,23,13,55,13.50
2013,04,23,13,56,13.40
2013,04,23,13,57,13.30
2013,04,23,13,58,13.20
2013,04,23,13,59,13.20
2013,04,23,14,00,13.20
2013,04,23,14,01,13.20
2013,04,23,14,02,13.20
2013,04,23,14,03,13.30
2013,04,23,14,04,13.40
2013,04,23,14,05,13.40
2013,04,23,14,06,13.50
2013,04,23,14,07,13.60
2013,04,23,14,08,13.60
2013,04,23,14,09,13.60
2013,04,23,14,10,13.60
2013,04,23,14,11,13.70
2013,04,23,14,12,13.60
2013,04,23,14,13,13.60
2013,04,23,14,14,13.60
2013,04,23,14,15,13.60
2013,04,23,14,16,13.60
2013,04,23,14,17,13.70
2013,04,23,14,18,13.80
2013,04,23,14,19,13.80
2013,04,23,14,20,13.80
2013,04,23,14,21,13.90
2013,04,23,14,22,14.00
2013,04,23,14,23,14.00
2013,04,23,14,24,14.10
2013,04,23,14,25,14.20
2013,04,23,14,26,14.20
2013,04,23,14,27,14.20
2013,04,23,14,28,14.30
2013,04,23,14,29,14.50
2013,04,23,14,30,14.60
2013,04,23,14,31,14.60
2013,04,23,14,32,14.60
2013,04,23,14,33,14.50
2013,04,23,14,34,14.40
2013,04,23,14,35,14.40
2013,04,23,14,36,14.40
2013,04,23,14,37,14.50
2013,04,23,14,38,14.60
2013,04,23,14,39,14.70
2013,04,23,14,40,14.70
2013,04,23,14,41,14.60
2013,04,23,14,42,14.50
2013,04,23,14,43,14.50
2013,04,23,14,44,14.60
2013,04,23,14,45,14.70
2013,04,23,14,46,14.70
2013,04,23,14,47,14.80
2013,04,23,14,48,14.80
2013,04,23,14,49,14.90
2013,04,23,14,50,14.90
2013,04,23,14,51,14.90
2013,04,23,14,52,14.90
2013,04,23,14,53,14.90
2013,04,23,14,54,15.00
2013,04,23,14,55,15.00
2013,04,23,14,56,15.10
2013,04,23,14,57,15.20
2013,04,23,14,58,15.30
2013,04,23,14,59,15.30
2013,04,23,15,00,15.50
2013,04,23,15,01,15.60
2013,04,23,15,02,15.60
2013,04,23,15,03,15.60
2013,04,23,15,04,15.60
2013,04,23,15,05,15.60
2013,04,23,15,06,15.60
2013,04,23,15,07,15.60
2013,04,23,15,08,15.70
2013,04,23,15,09,15.70
2013,04,23,15,10,15.60
2013,04,23,15,11,15.50
2013,04,23,15,12,15.40
2013,04,23,15,13,15.40
2013,04,23,15,14,15.40
2013,04,23,15,15,15.40
2013,04,23,15,16,15.40
2013,04,23,15,17,15.50
2013,04,23,15,18,15.60
2013,04,23,15,19,15.60
2013,04,23,15,20,15.60
2013,04,23,15,21,15.60
2013,04,23,15,22,15.60
2013,04,23,15,23,15.60
2013,04,23,15,24,15.60
2013,04,23,15,25,15.60
2013,04,23,15,26,15.60
2013,04,23,15,27,15.50
2013,04,23,15,28,15.50
2013,04,23,15,29,15.40
2013,04,23,15,30,15.50
2013,04,23,15,31,15.50
2013,04,23,15,32,15.50
2013,04,23,15,33,15.50
2013,04,23,15,34,15.40
2013,04,23,15,35,15.30
2013,04,23,15,36,15.30
2013,04,23,15,37,15.40
2013,04,23,15,38,15.40
2013,04,23,15,39,15.50
2013,04,23,15,40,15.60
2013,04,23,15,41,15.60
2013,04,23,15,42,15.60
2013,04,23,15,43,15.60
2013,04,23,15,44,15.60
2013,04,23,15,45,15.50
2013,04,23,15,46,15.50
2013,04,23,15,47,15.30
2013,04,23,15,48,15.30
2013,04,23,15,49,15.30
2013,04,23,15,50,15.20
2013,04,23,15,51,15.20
2013,04,23,15,52,15.20
2013,04,23,15,53,15.20
2013,04,23,15,54,15.20
2013,04,23,15,55,15.20
2013,04,23,15,56,15.30
2013,04,23,15,57,15.30
2013,04,23,15,58,15.30
2013,04,23,15,59,15.20
2013,04,23,16,00,15.10
2013,04,23,16,01,15.10
2013,04,23,16,02,15.10
2013,04,23,16,03,15.10
2013,04,23,16,04,15.10
2013,04,23,16,05,15.10
2013,04,23,16,06,15.00
2013,04,23,16,07,15.00
2013,04,23,16,08,15.00
2013,04,23,16,09,14.90
2013,04,23,16,10,14.90
2013,04,23,16,11,14.90
2013,04,23,16,12,14.80
2013,04,23,16,13,14.80
2013,04,23,16,14,14.80
2013,04,23,16,15,14.80
2013,04,23,16,16,14.80
2013,04,23,16,17,14.90
2013,04,23,16,18,14.90
2013,04,23,16,19,15.00
2013,04,23,16,20,15.10
2013,04,23,16,21,15.10
2013,04,23,16,22,15.20
2013,04,23,16,23,15.20
2013,04,23,16,24,15.20
2013,04,23,16,25,15.10
2013,04,23,16,26,15.10
2013,04,23,16,27,15.10
2013,04,23,16,28,15.10
2013,04,23,16,29,15.10
2013,04,23,16,30,15.10
2013,04,23,16,31,15.10
2013,04,23,16,32,15.10
2013,04,23,16,33,15.00
2013,04,23,16,34,15.10
2013,04,23,16,35,15.10
2013,04,23,16,36,15.10
2013,04,23,16,37,15.20
2013,04,23,16,38,15.20
2013,04,23,16,39,15.30
2013,04,23,16,40,15.30
2013,04,23,16,41,15.30
2013,04,23,16,42,15.30
2013,04,23,16,43,15.30
2013,04,23,16,44,15.30
2013,04,23,16,45,15.30
2013,04,23,16,46,15.20
2013,04,23,16,47,15.20
2013,04,23,16,48,15.20
2013,04,23,16,49,15.20
2013,04,23,16,50,15.20
2013,04,23,16,51,15.20
2013,04,23,16,52,15.20
2013,04,23,16,53,15.20
2013,04,23,16,54,15.20
2013,04,23,16,55,15.20
2013,04,23,16,56,15.20
2013,04,23,16,57,15.20
2013,04,23,16,58,15.20
2013,04,23,16,59,15.20
2013,04,23,17,00,15.20
2013,04,23,17,01,15.20
2013,04,23,17,02,15.10
2013,04,23,17,03,15.00
2013,04,23,17,04,15.00
2013,04,23,17,05,15.00
2013,04,23,17,06,15.00
2013,04,23,17,07,15.00
2013,04,23,17,08,14.90
2013,04,23,17,09,14.90
2013,04,23,17,10,14.90
2013,04,23,17,11,14.90
2013,04,23,17,12,14.90
2013,04,23,17,13,15.00
2013,04,23,17,14,15.00
2013,04,23,17,15,15.10
2013,04,23,17,16,15.10
2013,04,23,17,17,15.10
2013,04,23,17,18,15.20
2013,04,23,17,19,15.20
2013,04,23,17,20,15.20
2013,04,23,17,21,15.20
2013,04,23,17,22,15.20
2013,04,23,17,23,15.10
2013,04,23,17,24,15.10
2013,04,23,17,25,15.20
2013,04,23,17,26,15.20
2013,04,23,17,27,15.20
2013,04,23,17,28,15.20
2013,04,23,17,29,15.20
2013,04,23,17,30,15.20
2013,04,23,17,31,15.30
2013,04,23,17,32,15.30
2013,04,23,17,33,15.30
2013,04,23,17,34,15.30
2013,04,23,17,35,15.30
2013,04,23,17,36,15.30
2013,04,23,17,37,15.30
2013,04,23,17,38,15.30
2013,04,23,17,39,15.40
2013,04,23,17,40,15.40
2013,04,23,17,41,15.30
2013,04,23,17,42,15.30
2013,04,23,17,43,15.30
2013,04,23,17,44,15.30
2013,04,23,17,45,15.30